Kota Waris — S6RJ — position and weather

sailwx.info

Track history (hours):
 
Tides and Currents Weather Stations Pressure Air Temp Water Temp Dewpoint Dewpoint Depression Visibility Wind Speed Wind Dir Waves Ship Positions

Kota Waris

Last reported at 2014-Jul-25 08:33 UTC. Time now 2014-Jul-25 08:57 UTC.
Position N 01°16' E 103°54'.

Length 185 m; draft 8.6 m.

Type: Ship (hazmat cat A). MMSI: 564482000.

Date/timePositionNaut miles runAvg speedWind from/ knotsBaromVisibWave heightAir tempDewpointWater temp
2014-Jul-25 08:33N 01°16' E 103°54'0 0.1
2014-Jul-25 07:26N 01°16' E 103°54'0 0.1
2014-Jul-25 06:33N 01°16' E 103°54'0 0.0
2014-Jul-25 05:33N 01°16' E 103°54'0 0.1
2014-Jul-25 04:32N 01°16' E 103°54'0 0.0
2014-Jul-25 03:33N 01°16' E 103°54'0 0.1
2014-Jul-25 02:30N 01°16' E 103°53'0 0.0
2014-Jul-25 01:17N 01°16' E 103°53'0 0.0
2014-Jul-25 00:32N 01°16' E 103°53'0 0.0
2014-Jul-24 23:32N 01°16' E 103°53'0 0.0
2014-Jul-24 22:29N 01°16' E 103°53'0 0.0
2014-Jul-24 21:32N 01°16' E 103°53'0 0.1
2014-Jul-24 20:33N 01°16' E 103°54'0 0.1
2014-Jul-24 19:33N 01°16' E 103°54'0 0.1
2014-Jul-24 18:32N 01°16' E 103°54'0 0.1
2014-Jul-24 17:33N 01°16' E 103°54'0 0.0
2014-Jul-24 16:32N 01°16' E 103°54'0 0.0
2014-Jul-24 15:32N 01°16' E 103°54'0 0.0
2014-Jul-24 14:33N 01°16' E 103°54'0 0.1
2014-Jul-24 13:32N 01°16' E 103°54'0 0.1
2014-Jul-24 12:33N 01°16' E 103°53'0 0.0
2014-Jul-24 11:32N 01°16' E 103°53'0 0.0
2014-Jul-24 10:32N 01°16' E 103°53'0 0.0
2014-Jul-24 09:23N 01°16' E 103°53'0 0.0
2014-Jul-24 08:33N 01°16' E 103°53'0 0.1
2014-Jul-24 07:32N 01°16' E 103°53'0 0.1
2014-Jul-24 06:32N 01°16' E 103°54'0 0.0
2014-Jul-24 05:30N 01°16' E 103°54'0 0.0
2014-Jul-24 04:32N 01°16' E 103°54'0 0.1
2014-Jul-24 03:30N 01°16' E 103°53'0 0.0
2014-Jul-24 02:33N 01°16' E 103°53'0 0.0
2014-Jul-24 01:32N 01°16' E 103°53'0 0.1
2014-Jul-24 00:29N 01°16' E 103°54'0 0.1
2014-Jul-23 23:33N 01°16' E 103°53'0 0.0
2014-Jul-23 22:33N 01°16' E 103°53'0 0.1
2014-Jul-23 21:33N 01°16' E 103°54'0 0.0
2014-Jul-23 20:30N 01°16' E 103°54'0 0.0
2014-Jul-23 19:33N 01°16' E 103°54'0 0.1
2014-Jul-23 18:33N 01°16' E 103°54'0 0.1
2014-Jul-23 17:32N 01°16' E 103°54'0 0.0
2014-Jul-23 16:33N 01°16' E 103°54'0 0.1
2014-Jul-23 15:32N 01°16' E 103°54'0 0.0
2014-Jul-23 14:32N 01°16' E 103°54'0 0.1
2014-Jul-23 13:32N 01°16' E 103°54'0 0.5
2014-Jul-23 12:33N 01°15' E 103°54'5 4.5
2014-Jul-23 11:33N 01°15' E 103°58'  
2014-Jul-19 07:04N 22°03' E 113°51'5 9.1
2014-Jul-19 06:32N 22°08' E 113°51'1212.6
2014-Jul-19 05:33N 22°20' E 113°48'1410.9
2014-Jul-19 04:18N 22°33' E 113°44'5 7.0
2014-Jul-19 03:32N 22°38' E 113°41'0 0.0
2014-Jul-18 23:29N 22°38' E 113°41'0 0.0
2014-Jul-18 22:29N 22°38' E 113°41'0 0.0
2014-Jul-18 21:23N 22°38' E 113°41'0 0.0
2014-Jul-18 20:05N 22°38' E 113°41'0 0.2
2014-Jul-18 17:31N 22°38' E 113°42'1312.7
2014-Jul-18 16:32N 22°26' E 113°46'1212.6
2014-Jul-18 15:33N 22°14' E 113°48'8 7.9
2014-Jul-18 14:33N 22°06' E 113°51'1110.6
2014-Jul-18 13:32N 22°08' E 114°03'168 6.2
2014-Jul-17 10:33N 22°55' E 116°57'1414.3
2014-Jul-17 09:33N 23°03' E 117°10'8015.1
2014-Jul-17 04:12N 23°53' E 118°19'2 3.0
2014-Jul-17 03:31N 23°54' E 118°21'1613.7
2014-Jul-17 02:20N 24°04' E 118°35'39313.2
2014-Jul-15 20:30N 29°33' E 122°35'1314.1
2014-Jul-15 19:33N 29°42' E 122°24'1313.3
2014-Jul-15 18:33N 29°51' E 122°12'1212.0
2014-Jul-15 17:33N 29°57' E 121°60'7 6.5
2014-Jul-15 16:33N 29°56' E 121°52'0 0.0
2014-Jul-15 15:28N 29°56' E 121°52'0 0.0
2014-Jul-15 14:29N 29°56' E 121°52'0 0.0
2014-Jul-15 13:29N 29°56' E 121°52'0 0.0
2014-Jul-15 12:29N 29°56' E 121°52'0 0.0
2014-Jul-15 11:29N 29°56' E 121°52'0 0.0
2014-Jul-15 10:29N 29°56' E 121°52'0 0.0
2014-Jul-15 09:29N 29°56' E 121°52'  
Track history (hours):
 
Tides and Currents Weather Stations Pressure Air Temp Water Temp Dewpoint Dewpoint Depression Visibility Wind Speed Wind Dir Waves Ship Positions

Kota Waris

Last reported at 2014-Jul-25 08:33 UTC. Time now 2014-Jul-25 08:57 UTC.
Position N 01°16' E 103°54'.

Length 185 m; draft 8.6 m.

Type: Ship (hazmat cat A). MMSI: 564482000.

Date/timePositionNaut miles runAvg speedWind from/ knotsBaromVisibWave heightAir tempDewpointWater temp
2014-Jul-25 08:33N 01°16' E 103°54'0 0.1
2014-Jul-25 07:26N 01°16' E 103°54'0 0.1
2014-Jul-25 06:33N 01°16' E 103°54'0 0.0
2014-Jul-25 05:33N 01°16' E 103°54'0 0.1
2014-Jul-25 04:32N 01°16' E 103°54'0 0.0
2014-Jul-25 03:33N 01°16' E 103°54'0 0.1
2014-Jul-25 02:30N 01°16' E 103°53'0 0.0
2014-Jul-25 01:17N 01°16' E 103°53'0 0.0
2014-Jul-25 00:32N 01°16' E 103°53'0 0.0
2014-Jul-24 23:32N 01°16' E 103°53'0 0.0
2014-Jul-24 22:29N 01°16' E 103°53'0 0.0
2014-Jul-24 21:32N 01°16' E 103°53'0 0.1
2014-Jul-24 20:33N 01°16' E 103°54'0 0.1
2014-Jul-24 19:33N 01°16' E 103°54'0 0.1
2014-Jul-24 18:32N 01°16' E 103°54'0 0.1
2014-Jul-24 17:33N 01°16' E 103°54'0 0.0
2014-Jul-24 16:32N 01°16' E 103°54'0 0.0
2014-Jul-24 15:32N 01°16' E 103°54'0 0.0
2014-Jul-24 14:33N 01°16' E 103°54'0 0.1
2014-Jul-24 13:32N 01°16' E 103°54'0 0.1
2014-Jul-24 12:33N 01°16' E 103°53'0 0.0
2014-Jul-24 11:32N 01°16' E 103°53'0 0.0
2014-Jul-24 10:32N 01°16' E 103°53'0 0.0
2014-Jul-24 09:23N 01°16' E 103°53'0 0.0
2014-Jul-24 08:33N 01°16' E 103°53'0 0.1
2014-Jul-24 07:32N 01°16' E 103°53'0 0.1
2014-Jul-24 06:32N 01°16' E 103°54'0 0.0
2014-Jul-24 05:30N 01°16' E 103°54'0 0.0
2014-Jul-24 04:32N 01°16' E 103°54'0 0.1
2014-Jul-24 03:30N 01°16' E 103°53'0 0.0
2014-Jul-24 02:33N 01°16' E 103°53'0 0.0
2014-Jul-24 01:32N 01°16' E 103°53'0 0.1
2014-Jul-24 00:29N 01°16' E 103°54'0 0.1
2014-Jul-23 23:33N 01°16' E 103°53'0 0.0
2014-Jul-23 22:33N 01°16' E 103°53'0 0.1
2014-Jul-23 21:33N 01°16' E 103°54'0 0.0
2014-Jul-23 20:30N 01°16' E 103°54'0 0.0
2014-Jul-23 19:33N 01°16' E 103°54'0 0.1
2014-Jul-23 18:33N 01°16' E 103°54'0 0.1
2014-Jul-23 17:32N 01°16' E 103°54'0 0.0
2014-Jul-23 16:33N 01°16' E 103°54'0 0.1
2014-Jul-23 15:32N 01°16' E 103°54'0 0.0
2014-Jul-23 14:32N 01°16' E 103°54'0 0.1
2014-Jul-23 13:32N 01°16' E 103°54'0 0.5
2014-Jul-23 12:33N 01°15' E 103°54'5 4.5
2014-Jul-23 11:33N 01°15' E 103°58'  
2014-Jul-19 07:04N 22°03' E 113°51'5 9.1
2014-Jul-19 06:32N 22°08' E 113°51'1212.6
2014-Jul-19 05:33N 22°20' E 113°48'1410.9
2014-Jul-19 04:18N 22°33' E 113°44'5 7.0
2014-Jul-19 03:32N 22°38' E 113°41'0 0.0
2014-Jul-18 23:29N 22°38' E 113°41'0 0.0
2014-Jul-18 22:29N 22°38' E 113°41'0 0.0
2014-Jul-18 21:23N 22°38' E 113°41'0 0.0
2014-Jul-18 20:05N 22°38' E 113°41'0 0.2
2014-Jul-18 17:31N 22°38' E 113°42'1312.7
2014-Jul-18 16:32N 22°26' E 113°46'1212.6
2014-Jul-18 15:33N 22°14' E 113°48'8 7.9
2014-Jul-18 14:33N 22°06' E 113°51'1110.6
2014-Jul-18 13:32N 22°08' E 114°03'168 6.2
2014-Jul-17 10:33N 22°55' E 116°57'1414.3
2014-Jul-17 09:33N 23°03' E 117°10'8015.1
2014-Jul-17 04:12N 23°53' E 118°19'2 3.0
2014-Jul-17 03:31N 23°54' E 118°21'1613.7
2014-Jul-17 02:20N 24°04' E 118°35'39313.2
2014-Jul-15 20:30N 29°33' E 122°35'1314.1
2014-Jul-15 19:33N 29°42' E 122°24'1313.3
2014-Jul-15 18:33N 29°51' E 122°12'1212.0
2014-Jul-15 17:33N 29°57' E 121°60'7 6.5
2014-Jul-15 16:33N 29°56' E 121°52'0 0.0
2014-Jul-15 15:28N 29°56' E 121°52'0 0.0
2014-Jul-15 14:29N 29°56' E 121°52'0 0.0
2014-Jul-15 13:29N 29°56' E 121°52'0 0.0
2014-Jul-15 12:29N 29°56' E 121°52'0 0.0
2014-Jul-15 11:29N 29°56' E 121°52'0 0.0
2014-Jul-15 10:29N 29°56' E 121°52'0 0.0
2014-Jul-15 09:29N 29°56' E 121°52'  

Dump ship's entire track history